{"data":{"norad_id":47887,"epoch":"2026-05-24T16:27:56.555136Z","epoch_age_seconds":95432,"freshness":"FRESH","line1":"1 47887U 21021AD  26144.68607124  .00008968  00000+0  30021-3 0  9990","line2":"2 47887  53.1579 287.5208 0001094  88.1267 271.9859 15.31719137287707","mean_motion":15.31719137,"eccentricity":0.0001094,"inclination_deg":53.1579,"raan_deg":287.5208,"arg_perigee_deg":88.1267,"mean_anomaly_deg":271.9859,"bstar":0.00030021,"rev_number":28770,"period_min":94.012013378664,"perigee_km":469.93368851593,"apogee_km":471.43221032086,"semimajor_km":6848.8199494184,"source":"CELESTRAK","updated_at":"2026-05-25T13:38:16.611521Z"}}